Wetterdaten: Woche 21.11.05 - 27.11.05 (KW47)
Datum Zeit Temperatur Luftfeuchte Luftdruck Niederschlag Windrichtung Wind
21.11.2005 00:00 0,3 C 74 % 1029 hPa 0,0 l/m N 0,0 km/h (0 Bft)
21.11.2005 01:00 -0,0 C 79 % 1028 hPa 0,0 l/m N 0,0 km/h (0 Bft)
21.11.2005 02:00 -0,1 C 79 % 1028 hPa 0,0 l/m N 0,0 km/h (0 Bft)
21.11.2005 03:00 -1,0 C 81 % 1028 hPa 0,0 l/m N 0,0 km/h (0 Bft)
21.11.2005 04:00 -1,1 C 83 % 1027 hPa 0,0 l/m N 0,0 km/h (0 Bft)
21.11.2005 05:00 -1,2 C 84 % 1027 hPa 0,0 l/m N 0,0 km/h (0 Bft)
21.11.2005 06:00 -1,1 C 87 % 1027 hPa 0,0 l/m N 0,0 km/h (0 Bft)
21.11.2005 07:00 -0,7 C 90 % 1027 hPa 0,0 l/m N 0,0 km/h (0 Bft)
21.11.2005 08:00 -0,6 C 96 % 1026 hPa 0,0 l/m N 0,0 km/h (0 Bft)
21.11.2005 09:00 -0,5 C 97 % 1026 hPa 0,0 l/m N 0,0 km/h (0 Bft)
21.11.2005 10:00 -0,2 C 97 % 1026 hPa 0,0 l/m N 0,0 km/h (0 Bft)
21.11.2005 11:00 0,1 C 99 % 1026 hPa 0,0 l/m N 0,0 km/h (0 Bft)
21.11.2005 12:00 0,5 C 100 % 1026 hPa 0,0 l/m N 0,0 km/h (0 Bft)
21.11.2005 13:00 0,7 C 100 % 1025 hPa 0,0 l/m N 0,0 km/h (0 Bft)
21.11.2005 14:00 0,4 C 100 % 1025 hPa 0,0 l/m N 0,0 km/h (0 Bft)
21.11.2005 15:00 0,4 C 100 % 1026 hPa 0,0 l/m N 0,0 km/h (0 Bft)
21.11.2005 16:00 0,3 C 100 % 1026 hPa 0,0 l/m N 0,0 km/h (0 Bft)
21.11.2005 17:00 0,3 C 100 % 1026 hPa 0,0 l/m N 0,0 km/h (0 Bft)
21.11.2005 18:00 0,4 C 100 % 1027 hPa 0,0 l/m N 0,0 km/h (0 Bft)
21.11.2005 19:00 0,7 C 100 % 1027 hPa 0,0 l/m N 8,0 km/h (2 Bft)
21.11.2005 20:00 0,6 C 99 % 1028 hPa 0,0 l/m N-NO 11,8 km/h (2 Bft)
21.11.2005 21:00 0,4 C 94 % 1028 hPa 0,0 l/m N-NO 0,3 km/h (0 Bft)
21.11.2005 22:00 0,1 C 89 % 1028 hPa 0,0 l/m N 0,0 km/h (0 Bft)
21.11.2005 23:00 -0,8 C 83 % 1028 hPa 0,0 l/m N 0,0 km/h (0 Bft)
22.11.2005 00:00 -1,8 C 88 % 1028 hPa 0,0 l/m N 0,0 km/h (0 Bft)
22.11.2005 01:00 -2,2 C 89 % 1029 hPa 0,0 l/m N 0,0 km/h (0 Bft)
22.11.2005 02:00 -2,4 C 93 % 1029 hPa 0,0 l/m N 0,0 km/h (0 Bft)
22.11.2005 03:00 -2,0 C 95 % 1029 hPa 0,0 l/m N 0,0 km/h (0 Bft)
22.11.2005 04:00 -2,0 C 95 % 1029 hPa 0,0 l/m N 0,0 km/h (0 Bft)
22.11.2005 05:00 -1,6 C 92 % 1030 hPa 0,0 l/m N 0,0 km/h (0 Bft)
22.11.2005 06:00 -1,5 C 94 % 1030 hPa 0,0 l/m N 0,0 km/h (0 Bft)
22.11.2005 07:00 -1,6 C 94 % 1030 hPa 0,0 l/m N 0,0 km/h (0 Bft)
22.11.2005 08:00 -1,7 C 92 % 1030 hPa 0,0 l/m N 0,0 km/h (0 Bft)
22.11.2005 09:00 -1,5 C 89 % 1030 hPa 0,0 l/m N 0,0 km/h (0 Bft)
22.11.2005 10:00 -1,1 C 80 % 1030 hPa 0,0 l/m N 0,0 km/h (0 Bft)
22.11.2005 11:00 -0,7 C 74 % 1030 hPa 0,0 l/m N 0,0 km/h (0 Bft)
22.11.2005 12:00 -0,2 C 74 % 1030 hPa 0,0 l/m N 0,0 km/h (0 Bft)
22.11.2005 13:00 -0,4 C 82 % 1030 hPa 0,0 l/m N 0,0 km/h (0 Bft)
22.11.2005 14:00 -0,5 C 86 % 1030 hPa 0,0 l/m N-NO 2,1 km/h (1 Bft)
22.11.2005 15:00 -0,9 C 80 % 1030 hPa 0,0 l/m N-NO 14,2 km/h (3 Bft)
22.11.2005 16:00 -1,2 C 79 % 1030 hPa 0,0 l/m N-NO 13,8 km/h (3 Bft)
22.11.2005 17:00 -2,1 C 82 % 1030 hPa 0,0 l/m N-NO 12,1 km/h (2 Bft)
22.11.2005 18:00 -2,3 C 86 % 1030 hPa 0,0 l/m N-NO 12,0 km/h (2 Bft)
22.11.2005 19:00 -2,0 C 89 % 1030 hPa 0,0 l/m N-NO 11,9 km/h (2 Bft)
22.11.2005 20:00 -1,8 C 89 % 1030 hPa 0,0 l/m N-NO 8,9 km/h (2 Bft)
22.11.2005 21:00 -1,7 C 90 % 1030 hPa 0,0 l/m N-NO 10,0 km/h (2 Bft)
22.11.2005 22:00 -1,5 C 92 % 1030 hPa 0,0 l/m N-NO 10,8 km/h (2 Bft)
22.11.2005 23:00 -1,1 C 95 % 1030 hPa 0,0 l/m N-NO 14,8 km/h (3 Bft)
23.11.2005 00:00 -0,9 C 97 % 1030 hPa 0,0 l/m N-NO 16,2 km/h (3 Bft)
23.11.2005 01:00 -0,8 C 98 % 1029 hPa 0,0 l/m N-NO 15,6 km/h (3 Bft)
23.11.2005 02:00 -0,7 C 98 % 1029 hPa 0,0 l/m N-NO 18,6 km/h (3 Bft)
23.11.2005 03:00 -0,5 C 94 % 1029 hPa 0,0 l/m N-NO 18,5 km/h (3 Bft)
23.11.2005 04:00 -0,5 C 91 % 1028 hPa 0,0 l/m N-NO 17,3 km/h (3 Bft)
23.11.2005 05:00 -0,5 C 89 % 1028 hPa 0,0 l/m N-NO 16,5 km/h (3 Bft)
23.11.2005 06:00 -0,5 C 90 % 1028 hPa 0,0 l/m N-NO 17,0 km/h (3 Bft)
23.11.2005 07:00 -0,5 C 89 % 1028 hPa 0,0 l/m N-NO 20,5 km/h (4 Bft)
23.11.2005 08:00 -0,8 C 86 % 1028 hPa 0,0 l/m O-NO 20,6 km/h (4 Bft)
23.11.2005 09:00 -1,3 C 73 % 1028 hPa 0,0 l/m NO 19,2 km/h (3 Bft)
23.11.2005 10:00 -1,4 C 69 % 1028 hPa 0,0 l/m NO 18,5 km/h (3 Bft)
23.11.2005 11:00 -1,6 C 69 % 1028 hPa 0,0 l/m O-NO 18,5 km/h (3 Bft)
23.11.2005 12:00 -1,0 C 65 % 1027 hPa 0,0 l/m O-NO 22,4 km/h (4 Bft)
23.11.2005 13:00 -0,1 C 54 % 1026 hPa 0,0 l/m O-NO 24,1 km/h (4 Bft)
23.11.2005 14:00 -0,5 C 53 % 1026 hPa 0,0 l/m N-NO 20,7 km/h (4 Bft)
23.11.2005 15:00 -1,9 C 55 % 1026 hPa 0,0 l/m N-NO 20,4 km/h (4 Bft)
23.11.2005 16:00 -3,0 C 57 % 1026 hPa 0,0 l/m N-NO 20,9 km/h (4 Bft)
23.11.2005 17:00 -3,8 C 60 % 1026 hPa 0,0 l/m NO 13,9 km/h (3 Bft)
23.11.2005 18:00 -4,5 C 66 % 1026 hPa 0,0 l/m NO 10,7 km/h (2 Bft)
23.11.2005 19:00 -5,0 C 71 % 1026 hPa 0,0 l/m N-NO 12,5 km/h (3 Bft)
23.11.2005 20:00 -5,4 C 74 % 1025 hPa 0,0 l/m N-NO 11,8 km/h (2 Bft)
23.11.2005 21:00 -5,7 C 75 % 1025 hPa 0,0 l/m N-NO 11,4 km/h (2 Bft)
23.11.2005 22:00 -5,2 C 72 % 1025 hPa 0,0 l/m N-NO 13,8 km/h (3 Bft)
23.11.2005 23:00 -4,7 C 67 % 1024 hPa 0,0 l/m NO 17,1 km/h (3 Bft)
24.11.2005 00:00 -4,7 C 67 % 1024 hPa 0,0 l/m NO 18,6 km/h (3 Bft)
24.11.2005 01:00 -4,8 C 67 % 1023 hPa 0,0 l/m NO 17,2 km/h (3 Bft)
24.11.2005 02:00 -5,0 C 66 % 1023 hPa 0,0 l/m O-NO 17,6 km/h (3 Bft)
24.11.2005 03:00 -5,1 C 66 % 1022 hPa 0,0 l/m O-NO 16,5 km/h (3 Bft)
24.11.2005 04:00 -5,4 C 65 % 1021 hPa 0,0 l/m O-NO 17,7 km/h (3 Bft)
24.11.2005 05:00 -5,5 C 66 % 1021 hPa 0,0 l/m N-NO 13,4 km/h (3 Bft)
24.11.2005 06:00 -5,6 C 67 % 1021 hPa 0,0 l/m N-NO 11,8 km/h (2 Bft)
24.11.2005 07:00 -5,6 C 67 % 1020 hPa 0,0 l/m N-NO 10,9 km/h (2 Bft)
24.11.2005 08:00 -5,6 C 66 % 1020 hPa 0,0 l/m O-NO 11,0 km/h (2 Bft)
24.11.2005 09:00 -5,3 C 63 % 1020 hPa 0,0 l/m N-NO 9,1 km/h (2 Bft)
24.11.2005 10:00 -5,0 C 60 % 1019 hPa 0,0 l/m O 7,3 km/h (2 Bft)
24.11.2005 11:00 -4,6 C 58 % 1018 hPa 0,0 l/m O-NO 6,0 km/h (2 Bft)
24.11.2005 12:00 -4,6 C 57 % 1017 hPa 0,0 l/m O-NO 2,7 km/h (1 Bft)
24.11.2005 13:00 -4,4 C 57 % 1016 hPa 0,0 l/m S-SW 7,0 km/h (2 Bft)
24.11.2005 14:00 -4,5 C 57 % 1015 hPa 0,0 l/m S-SW 10,6 km/h (2 Bft)
24.11.2005 15:00 -4,8 C 59 % 1014 hPa 0,0 l/m S-SW 10,7 km/h (2 Bft)
24.11.2005 16:00 -5,8 C 62 % 1013 hPa 0,0 l/m S-SW 8,1 km/h (2 Bft)
24.11.2005 17:00 -6,4 C 68 % 1012 hPa 0,0 l/m S-SW 11,9 km/h (2 Bft)
24.11.2005 18:00 -7,4 C 72 % 1011 hPa 0,0 l/m S-SW 12,0 km/h (2 Bft)
24.11.2005 19:00 -7,1 C 76 % 1010 hPa 0,0 l/m S-SO 8,0 km/h (2 Bft)
24.11.2005 20:00 -6,5 C 78 % 1008 hPa 0,0 l/m S-SW 14,1 km/h (3 Bft)
24.11.2005 21:00 -4,7 C 70 % 1007 hPa 0,0 l/m SW 18,8 km/h (3 Bft)
24.11.2005 22:00 -4,2 C 70 % 1005 hPa 0,0 l/m S-SW 18,8 km/h (3 Bft)
24.11.2005 23:00 -3,7 C 69 % 1004 hPa 0,0 l/m S-SW 20,5 km/h (4 Bft)
25.11.2005 00:00 -3,9 C 80 % 1002 hPa 0,0 l/m S-SW 22,5 km/h (4 Bft)
25.11.2005 01:00 -4,0 C 89 % 1000 hPa 0,0 l/m S-SW 21,0 km/h (4 Bft)
25.11.2005 02:00 -3,8 C 94 % 998 hPa 0,0 l/m S 22,0 km/h (4 Bft)
25.11.2005 03:00 -4,0 C 96 % 997 hPa 0,0 l/m S-SW 23,5 km/h (4 Bft)
25.11.2005 04:00 -4,1 C 95 % 995 hPa 0,0 l/m S-SW 18,5 km/h (3 Bft)
25.11.2005 05:00 -2,8 C 96 % 994 hPa 0,0 l/m SW 19,9 km/h (4 Bft)
25.11.2005 06:00 -1,7 C 94 % 994 hPa 0,0 l/m SW 22,2 km/h (4 Bft)
25.11.2005 07:00 -1,3 C 96 % 994 hPa 0,0 l/m S-SW 18,5 km/h (3 Bft)
25.11.2005 08:00 -0,7 C 95 % 995 hPa 0,0 l/m W-SW 15,2 km/h (3 Bft)
25.11.2005 09:00 -0,5 C 90 % 995 hPa 0,0 l/m S-SW 12,1 km/h (2 Bft)
25.11.2005 10:00 -0,3 C 79 % 995 hPa 0,0 l/m S-SW 16,0 km/h (3 Bft)
25.11.2005 11:00 -0,1 C 74 % 996 hPa 0,0 l/m S-SW 16,4 km/h (3 Bft)
25.11.2005 12:00 0,2 C 66 % 995 hPa 0,0 l/m W-SW 15,8 km/h (3 Bft)
25.11.2005 13:00 0,2 C 59 % 995 hPa 0,0 l/m W-SW 15,7 km/h (3 Bft)
25.11.2005 14:00 0,5 C 55 % 995 hPa 0,0 l/m SW 16,1 km/h (3 Bft)
25.11.2005 15:00 -0,3 C 54 % 995 hPa 0,0 l/m S-SW 13,1 km/h (3 Bft)
25.11.2005 16:00 -1,8 C 59 % 996 hPa 0,0 l/m S-SW 4,8 km/h (1 Bft)
25.11.2005 17:00 -3,0 C 63 % 996 hPa 0,0 l/m S-SW 5,4 km/h (1 Bft)
25.11.2005 18:00 -4,3 C 70 % 996 hPa 0,0 l/m W-SW 2,8 km/h (1 Bft)
25.11.2005 19:00 -5,1 C 75 % 996 hPa 0,0 l/m W-SW 5,9 km/h (2 Bft)
25.11.2005 20:00 -3,7 C 71 % 996 hPa 0,0 l/m S-SW 11,2 km/h (2 Bft)
25.11.2005 21:00 -4,7 C 72 % 997 hPa 0,0 l/m S-SW 1,1 km/h (1 Bft)
25.11.2005 22:00 -6,3 C 78 % 997 hPa 0,0 l/m S 7,7 km/h (2 Bft)
25.11.2005 23:00 -6,8 C 86 % 996 hPa 0,0 l/m S 7,0 km/h (2 Bft)
26.11.2005 00:00 -7,0 C 89 % 996 hPa 0,0 l/m S-SW 8,3 km/h (2 Bft)
26.11.2005 01:00 -7,1 C 89 % 996 hPa 0,0 l/m S 2,9 km/h (1 Bft)
26.11.2005 02:00 -7,6 C 89 % 996 hPa 0,0 l/m S 4,2 km/h (1 Bft)
26.11.2005 03:00 -7,8 C 91 % 996 hPa 0,0 l/m S-SW 4,7 km/h (1 Bft)
26.11.2005 04:00 -7,2 C 93 % 996 hPa 0,0 l/m S-SW 4,0 km/h (1 Bft)
26.11.2005 05:00 -8,5 C 93 % 996 hPa 0,0 l/m N 0,0 km/h (0 Bft)
26.11.2005 06:00 -9,4 C 92 % 996 hPa 0,0 l/m N 0,0 km/h (0 Bft)
26.11.2005 07:00 -10,0 C 91 % 997 hPa 0,0 l/m N 0,0 km/h (0 Bft)
26.11.2005 08:00 -9,8 C 91 % 997 hPa 0,0 l/m N 0,0 km/h (0 Bft)
26.11.2005 09:00 -7,7 C 93 % 997 hPa 0,0 l/m N 0,0 km/h (0 Bft)
26.11.2005 10:00 -5,5 C 92 % 998 hPa 0,0 l/m SO 4,6 km/h (1 Bft)
26.11.2005 11:00 -3,6 C 80 % 997 hPa 0,0 l/m O 4,6 km/h (1 Bft)
26.11.2005 12:00 -0,9 C 63 % 996 hPa 0,0 l/m O-SO 5,8 km/h (2 Bft)
26.11.2005 13:00 -0,2 C 57 % 996 hPa 0,0 l/m S 9,6 km/h (2 Bft)
26.11.2005 14:00 -0,3 C 56 % 996 hPa 0,0 l/m S 6,1 km/h (2 Bft)
26.11.2005 15:00 -0,9 C 58 % 996 hPa 0,0 l/m S 1,3 km/h (1 Bft)
26.11.2005 16:00 -1,6 C 61 % 996 hPa 0,0 l/m N 0,0 km/h (0 Bft)
26.11.2005 17:00 -2,6 C 66 % 996 hPa 0,0 l/m NW 0,5 km/h (0 Bft)
26.11.2005 18:00 -3,5 C 69 % 996 hPa 0,0 l/m N-NW 1,9 km/h (1 Bft)
26.11.2005 19:00 -4,9 C 73 % 996 hPa 0,0 l/m N 0,0 km/h (0 Bft)
26.11.2005 20:00 -5,7 C 76 % 997 hPa 0,0 l/m N 0,0 km/h (0 Bft)
26.11.2005 21:00 -6,3 C 80 % 997 hPa 0,0 l/m N 0,0 km/h (0 Bft)
26.11.2005 22:00 -7,3 C 81 % 997 hPa 0,0 l/m N 0,0 km/h (0 Bft)
26.11.2005 23:00 -8,4 C 83 % 997 hPa 0,0 l/m N 0,0 km/h (0 Bft)
27.11.2005 00:00 -9,2 C 84 % 997 hPa 0,0 l/m N 0,0 km/h (0 Bft)
27.11.2005 01:00 -9,9 C 84 % 997 hPa 0,0 l/m N 0,0 km/h (0 Bft)
27.11.2005 02:00 -10,8 C 84 % 997 hPa 0,0 l/m N 0,0 km/h (0 Bft)
27.11.2005 03:00 -11,0 C 84 % 997 hPa 0,0 l/m W 1,8 km/h (1 Bft)
27.11.2005 04:00 -11,0 C 84 % 997 hPa 0,0 l/m N 0,0 km/h (0 Bft)
27.11.2005 05:00 -9,2 C 88 % 997 hPa 0,0 l/m S 4,0 km/h (1 Bft)
27.11.2005 06:00 -7,0 C 94 % 997 hPa 0,0 l/m S 10,6 km/h (2 Bft)
27.11.2005 07:00 -6,7 C 97 % 998 hPa 0,0 l/m S-SW 10,8 km/h (2 Bft)
27.11.2005 08:00 -6,0 C 99 % 998 hPa 0,0 l/m S 11,3 km/h (2 Bft)
27.11.2005 09:00 -4,5 C 100 % 998 hPa 0,0 l/m S-SW 10,4 km/h (2 Bft)
27.11.2005 10:00 -3,8 C 100 % 998 hPa 0,0 l/m S-SO 6,3 km/h (2 Bft)
27.11.2005 11:00 -2,5 C 100 % 998 hPa 0,0 l/m S-SO 5,1 km/h (1 Bft)
27.11.2005 12:00 -0,8 C 97 % 997 hPa 0,0 l/m S-SW 7,9 km/h (2 Bft)
27.11.2005 13:00 0,8 C 63 % 997 hPa 0,0 l/m S-SW 11,9 km/h (2 Bft)
27.11.2005 14:00 0,3 C 59 % 997 hPa 0,0 l/m S-SW 14,2 km/h (3 Bft)
27.11.2005 15:00 -0,2 C 63 % 997 hPa 0,0 l/m S-SW 13,6 km/h (3 Bft)
27.11.2005 16:00 -0,8 C 72 % 997 hPa 0,0 l/m SW 14,9 km/h (3 Bft)
27.11.2005 17:00 -1,1 C 78 % 998 hPa 0,0 l/m S-SW 14,1 km/h (3 Bft)
27.11.2005 18:00 -1,4 C 83 % 998 hPa 0,0 l/m S-SW 14,7 km/h (3 Bft)
27.11.2005 19:00 -1,3 C 83 % 998 hPa 0,0 l/m S-SW 16,5 km/h (3 Bft)
27.11.2005 20:00 -1,3 C 82 % 999 hPa 0,0 l/m S-SW 15,5 km/h (3 Bft)
27.11.2005 21:00 -1,0 C 82 % 999 hPa 0,0 l/m S-SW 14,0 km/h (3 Bft)
27.11.2005 22:00 -0,8 C 80 % 999 hPa 0,0 l/m SW 16,4 km/h (3 Bft)
27.11.2005 23:00 -0,7 C 76 % 999 hPa 0,0 l/m W-SW 18,9 km/h (3 Bft)
Min-Datum _ 27.11.05 23.11.05 25.11.05 - - 21.11.05
_ Min-Zeit 04:00 13:33 05:01 - - 00:00
Minimum _ -11,3 C 52 % 994 hPa - - 0,0 km/h (0 Bft)
Max-Datum _ 27.11.05 21.11.05 22.11.05 21.11.05 - 23.11.05
_ Max-Zeit 13:23 11:42 05:16 00:00 - 13:31
Maximum _ 1,3 C 100 % 1030 hPa 0,0 l/m - 46,4 km/h
O-NO (6 Bft)
Durchschnitt _ -3,0 C 80 % 1013 hPa #0,0 l/m N-NO 8,8 km/h (2 Bft)

Durchschnitt Minimum Temp.-3,4 C
Durchschnitt Maximum Temp.-2,7 C